Regional Weather Roundup
Issued by NWS

Home | Current Version | Previous Version | Graphics & Text | Print | Product List | Glossary On
Versions: 1 2 3 4 5 6 7 8 9 10 11 12 13 14 15 16 17 18 19 20 21 22 23 24 25 26 27 28 29 30 31 32 33 34 35 36 37 38 39 40 41 42 43 44 45 46 47 48 49 50
000
ASUS43 KLOT 261706
RWRIL

ILLINOIS REGIONAL WEATHER ROUNDUP
NATIONAL WEATHER SERVICE CHICAGO/ROMEOVILLE IL
1100 AM CST THU FEB 26 2015

NOTE: "FAIR" INDICATES FEW OR NO CLOUDS BELOW 12,000 FEET WITH NO
SIGNIFICANT WEATHER AND/OR OBSTRUCTIONS TO VISIBILITY.

* THESE STATIONS ARE NOT UNDER NWS QUALITY CONTROL. THEY ALSO MAY NOT
  REPORT WEATHER SUCH AS PRECIPITATION OR FOG.

ILZ001-002-007-009-015-016-024-261800-
NORTHWEST ILLINOIS

CITY           SKY/WX    TMP DP  RH WIND       PRES   REMARKS
MOLINE         CLOUDY    11   0  61 N10       30.32R WCI  -3
STERLING*      CLOUDY    12   3  67 N15       30.30R WCI  -4
SAVANNA*       MOSUNNY   11  -3  53 N13       30.32R WCI  -3
$$

ILZ003-004-008-010-011-017-018-261800-
NORTH CENTRAL ILLINOIS

CITY           SKY/WX    TMP DP  RH WIND       PRES   REMARKS
ROCKFORD       MOSUNNY   12  -2  53 N8        30.29R WCI   0
FREEPORT*      CLOUDY     7  -4  60 N9        30.31R WCI  -7
ROCHELLE*      SUNNY     10   3  73 N15       30.27R WCI  -6
DE KALB*       MOSUNNY   12   4  71 N13       30.24R WCI  -3
PERU*          MOSUNNY   16   8  69 N9        30.27R WCI   5
$$

ILZ005-006-012>014-019>023-261800-
NORTHEAST ILLINOIS

CITY           SKY/WX    TMP DP  RH WIND       PRES   REMARKS
CHICAGO-OHARE  LGT SNOW  15   9  76 N14       30.23R WCI   0
CHICAGO-MIDWAY LGT SNOW  19   9  65 N17       30.22R WCI   4
AURORA         MOSUNNY   16   7  67 N16       30.24R WCI   1
LANSING*       LGT SNOW  17  11  77 NE15      30.21R WCI   2
JOLIET*        CLOUDY    18   8  65 NE12      30.23R WCI   6
WAUKEGAN       LGT SNOW  14   7  73 NW10      30.24R WCI   1
DUPAGE AIRPORT CLOUDY    16   8  71 N14       30.22R WCI   2
KANKAKEE*      LGT SNOW  19  12  73 N10       30.21R WCI   8
WHEELING       LGT SNOW  15   8  73 NW13      30.25R WCI   1
MORRIS*        PTSUNNY   17  12  81 N8        30.23R WCI   7
ROMEOVILLE*    MIX PCPN  18   8  67 NE16      30.22R WCI   3
NORTHERLY ISL    N/A     17  11  77 NE16        N/A  WCI   2
$$

LMZ740>746-261800-
SOUTHERN LAKE MICHIGAN

STATION/POSITION SKY/WX   TEMP    WIND        PRES    VSBY  WAVE
                          AIR SEA DIR/SP/G                  HT/PER
                          (F)     (DEG/KT/KT) (MB)    (MI)  (FT/S)
WAUKEGAN HARBOR            13     340/ 13/ 16   N/A
HARRISON CRIB              16      10/ 21/ 24   N/A
BURNHAM HARBOR             17     160/ 18/ 19   N/A
CALUMET HARBOR             17      10/ 15/ 19 1022.0R
MICHIGAN CITY              11      20/ 15/ 18   N/A
$$

ILZ025>027-034>036-040-047-049-050-058-095>099-261800-
WEST-CENTRAL ILLINOIS

CITY           SKY/WX    TMP DP  RH WIND       PRES   REMARKS
QUINCY         MOSUNNY   15   6  67 NW17      30.30R WCI  -1
GALESBURG*     LGT SNOW  13   8  78 NW13      30.30R WCI  -1
MACOMB*        PTSUNNY   14   8  78 NW18      30.32R WCI  -3
JACKSONVILLE*  LGT SNOW  20  13  76 N14       30.26R WCI   7
PITTSFIELD*    LGT SNOW  18  12  77 NW16      30.29R WCI   3
$$

ILZ028>032-037-038-041>044-048-051>054-059>061-261800-
CENTRAL ILLINOIS

CITY           SKY/WX    TMP DP  RH WIND       PRES   REMARKS
PONTIAC        LGT SNOW  18  13  81 N12       30.23R WCI   6
BLOOMINGTON    LGT SNOW  17  13  84 N15       30.22R FOG     WCI   2
DECATUR        CLOUDY    20  14  77 N16       30.21R WCI   6
PEORIA         CLOUDY    19   9  65 N13       30.27R WCI   6
LACON*         CLOUDY    15   7  69 N12       30.27R WCI   2
LINCOLN*       LGT SNOW  21  15  76 N13       30.27R WCI   8
SPRINGFIELD    LGT SNOW  19  12  74 N18       30.25R WCI   4
TAYLORVILLE    LGT SNOW  19  14  79 N17       30.22R WCI   4
$$

ILZ033-039-045-046-055>057-062-063-261800-
EAST-CENTRAL ILLINOIS

CITY           SKY/WX    TMP DP  RH WIND       PRES   REMARKS
CHAMPAIGN      PTSUNNY   21  14  74 N12       30.18R WCI   9
DANVILLE*      CLOUDY    19  13  78 N13       30.14R WCI   6
RANTOUL*       CLOUDY    21  15  78 N10       30.19R WCI  10
MATTOON        CLOUDY    21  15  78 N17       30.16R WCI   7
PARIS*         CLOUDY    23  16  74 N8        30.17R WCI  13
$$

ILZ079-100>102-261800-
SOUTHWEST ILLINOIS

CITY           SKY/WX    TMP DP  RH WIND       PRES   REMARKS
ALTON          CLOUDY    21  14  73 NW10G17   30.24R WCI  10
BELLEVILLE     LGT SNOW  24  19  80 NW16G24   30.21R FOG     WCI  10
CAHOKIA*       LGT SNOW  24  17  74 N18       30.24R WCI  10
SPARTA*        LGT SNOW  24  19  82 NW12G18   30.19R WCI  13
$$

ILZ064>066-069>071-074>076-080>082-084>086-088>090-092>094-261800-
SOUTH-CENTRAL ILLINOIS

CITY           SKY/WX    TMP DP  RH WIND       PRES   REMARKS
CARBONDALE     CLOUDY    26  21  81 N18       30.16R WCI  13
CAIRO*         CLOUDY    34  25  68 N9        30.13R WCI  27
EFFINGHAM*     FLURRIES  24  14  67 N14       30.18R WCI  11
MARION         CLOUDY    28  25  86 N17       30.15R WCI  16
MT. VERNON     CLOUDY    25  18  74 N5        30.16R WCI  19
CENTRALIA*     LGT SNOW  25  19  78 N16       30.17R WCI  12
SALEM*         LGT SNOW  26  19  75 N13       30.17R WCI  15
METROPOLIS*    CLOUDY    32  24  73 N9        30.11R WCI  24
$$

ILZ067-068-072-073-078-083-087-091-261800-
SOUTHEAST ILLINOIS

CITY           SKY/WX    TMP DP  RH WIND       PRES   REMARKS
LAWRENCEVILLE    N/A    N/A N/A N/A MISG      30.14R
FLORA*         LGT SNOW  25  19  80 N12       30.17R WCI  14
FAIRFIELD*     LGT SNOW  26  21  82 N14       30.14R WCI  14
HARRISBURG*    CLOUDY    29  25  84 N8        30.15R WCI  21
ROBINSON*      CLOUDY    24  17  74 N9        30.16R WCI  15
CARMI*         FLURRIES  30  26  86 N12       30.13R WCI  21
$$

ABBREVIATIONS USED IN REMARKS
   TC - TEMPERATURE IN CELSIUS
  WCI - WIND CHILL INDEX
   HX - HEAT INDEX
  VSB - VISIBILITY
$$



USA.gov is the U.S. government's official web portal to all federal, state and local government web resources and services.